This is the latest recevied weather packets stored in our database for station/object WD7OO. If no packets are shown the sender has not sent any weather packets the latest 10 day(s).
| Time | Temp. | Humidity | Pressure | Rain* | Wind** | Luminosity | Snow |
|---|---|---|---|---|---|---|---|
| 1788305615 | 30° C | 86% | 1015.7 hPa | 0 mm | - | 38 W/m² | - |
| 1788305311 | 30° C | 87% | 1015.8 hPa | 0 mm | - | 44 W/m² | - |
| 1788305005 | 30° C | 85% | 1015.8 hPa | 0 mm | - | 52 W/m² | - |
| 1788304701 | 30° C | 85% | 1015.7 hPa | 0 mm | - | 58 W/m² | - |
| 1788304398 | 30° C | 85% | 1015.7 hPa | 0 mm | - | 60 W/m² | - |
| 1788304094 | 30° C | 84% | 1015.8 hPa | 0 mm | - | 64 W/m² | - |
| 1788303793 | 30.56° C | 83% | 1015.8 hPa | 0 mm | - | 66 W/m² | - |
| 1788303488 | 30.56° C | 82% | 1015.8 hPa | 0 mm | - | 65 W/m² | - |
| 1788303182 | 30.56° C | 82% | 1015.6 hPa | 0 mm | - | 60 W/m² | - |
| 1788302877 | 30.56° C | 80% | 1015.6 hPa | 0 mm | - | 62 W/m² | - |
| 1788302574 | 31.11° C | 80% | 1015.5 hPa | 0 mm | - | 66 W/m² | - |
| 1788302269 | 31.11° C | 79% | 1015.8 hPa | 0 mm | - | 76 W/m² | - |
| 1788301964 | 31.67° C | 79% | 1015.8 hPa | 0 mm | - | 93 W/m² | - |
| 1788301660 | 31.67° C | 79% | 1015.9 hPa | 0 mm | - | 104 W/m² | - |
| 1788301356 | 31.67° C | 78% | 1015.9 hPa | 0 mm | - | 120 W/m² | - |
| 1788301052 | 32.22° C | 78% | 1015.8 hPa | 0 mm | - | 130 W/m² | - |
| 1788300748 | 32.22° C | 75% | 1015.9 hPa | 0 mm | - | 130 W/m² | - |
| 1788300447 | 32.22° C | 77% | 1015.8 hPa | 0 mm | - | 164 W/m² | - |
| 1788300147 | 32.78° C | 78% | 1015.7 hPa | 0 mm | - | 181 W/m² | - |
| 1788299845 | 32.78° C | 75% | 1015.6 hPa | 0 mm | - | 195 W/m² | - |
| 1788299540 | 32.78° C | 76% | 1015.5 hPa | 0 mm | - | 206 W/m² | - |
| 1788299238 | 32.78° C | 73% | 1015.5 hPa | 0 mm | - | 203 W/m² | - |
| 1788298932 | 33.33° C | 74% | 1015.5 hPa | 0 mm | - | 214 W/m² | - |
| 1788298632 | 33.33° C | 71% | 1015.5 hPa | 0 mm | - | 241 W/m² | - |
| 1788298327 | 32.78° C | 72% | 1015.4 hPa | 0 mm | - | 285 W/m² | - |
* Rain latest hour (hover to see other rain measurements)
** Current wind speed in m/s (hover to see current wind gust speed)